Year,Month,Day,Hour,Minute,Value (Times are PST for temperature in C)
2020,04,13,07,54,4.80
2020,04,13,07,55,4.80
2020,04,13,07,56,4.80
2020,04,13,07,57,4.80
2020,04,13,07,58,4.80
2020,04,13,07,59,4.90
2020,04,13,08,00,4.90
2020,04,13,08,01,4.90
2020,04,13,08,02,4.90
2020,04,13,08,03,4.90
2020,04,13,08,04,5.00
2020,04,13,08,05,5.00
2020,04,13,08,06,5.10
2020,04,13,08,07,5.10
2020,04,13,08,08,5.20
2020,04,13,08,09,5.30
2020,04,13,08,10,5.40
2020,04,13,08,11,5.50
2020,04,13,08,12,5.60
2020,04,13,08,13,5.60
2020,04,13,08,14,5.70
2020,04,13,08,15,5.90
2020,04,13,08,16,6.00
2020,04,13,08,17,6.10
2020,04,13,08,18,6.20
2020,04,13,08,19,6.30
2020,04,13,08,20,6.40
2020,04,13,08,21,6.50
2020,04,13,08,22,6.60
2020,04,13,08,23,6.70
2020,04,13,08,24,6.80
2020,04,13,08,25,6.90
2020,04,13,08,26,7.00
2020,04,13,08,27,7.10
2020,04,13,08,28,7.20
2020,04,13,08,29,7.30
2020,04,13,08,30,7.30
2020,04,13,08,31,7.40
2020,04,13,08,32,7.50
2020,04,13,08,33,7.60
2020,04,13,08,34,7.60
2020,04,13,08,35,7.70
2020,04,13,08,36,7.80
2020,04,13,08,37,7.80
2020,04,13,08,38,7.80
2020,04,13,08,39,7.80
2020,04,13,08,40,7.90
2020,04,13,08,41,7.90
2020,04,13,08,42,8.00
2020,04,13,08,43,8.00
2020,04,13,08,44,8.10
2020,04,13,08,45,8.10
2020,04,13,08,46,8.20
2020,04,13,08,47,8.30
2020,04,13,08,48,8.30
2020,04,13,08,49,8.40
2020,04,13,08,50,8.40
2020,04,13,08,51,8.50
2020,04,13,08,52,8.50
2020,04,13,08,53,8.60
2020,04,13,08,54,8.70
2020,04,13,08,55,8.70
2020,04,13,08,56,8.80
2020,04,13,08,57,8.80
2020,04,13,08,58,8.80
2020,04,13,08,59,8.90
2020,04,13,09,00,8.90
2020,04,13,09,01,9.00
2020,04,13,09,02,9.00
2020,04,13,09,03,9.10
2020,04,13,09,04,9.10
2020,04,13,09,05,9.10
2020,04,13,09,06,9.10
2020,04,13,09,07,9.10
2020,04,13,09,08,9.10
2020,04,13,09,09,9.10
2020,04,13,09,10,9.20
2020,04,13,09,11,9.20
2020,04,13,09,12,9.20
2020,04,13,09,13,9.20
2020,04,13,09,14,9.10
2020,04,13,09,15,9.10
2020,04,13,09,16,9.00
2020,04,13,09,17,9.00
2020,04,13,09,18,9.00
2020,04,13,09,19,8.90
2020,04,13,09,20,8.90
2020,04,13,09,21,8.90
2020,04,13,09,22,8.90
2020,04,13,09,23,8.90
2020,04,13,09,24,8.90
2020,04,13,09,25,8.90
2020,04,13,09,26,8.90
2020,04,13,09,27,9.00
2020,04,13,09,28,9.00
2020,04,13,09,29,9.00
2020,04,13,09,30,9.00
2020,04,13,09,31,9.10
2020,04,13,09,32,9.10
2020,04,13,09,33,9.10
2020,04,13,09,34,9.20
2020,04,13,09,35,9.20
2020,04,13,09,36,9.30
2020,04,13,09,37,9.30
2020,04,13,09,38,9.40
2020,04,13,09,39,9.40
2020,04,13,09,40,9.50
2020,04,13,09,41,9.60
2020,04,13,09,42,9.70
2020,04,13,09,43,9.70
2020,04,13,09,44,9.80
2020,04,13,09,45,9.80
2020,04,13,09,46,9.90
2020,04,13,09,47,9.90
2020,04,13,09,48,9.90
2020,04,13,09,49,9.90
2020,04,13,09,50,9.90
2020,04,13,09,51,9.80
2020,04,13,09,52,9.80
2020,04,13,09,53,9.70
2020,04,13,09,54,9.60
2020,04,13,09,55,9.50
2020,04,13,09,56,9.50
2020,04,13,09,57,9.40
2020,04,13,09,58,9.40
2020,04,13,09,59,9.30
2020,04,13,10,00,9.30
2020,04,13,10,01,9.20
2020,04,13,10,02,9.20
2020,04,13,10,03,9.20
2020,04,13,10,04,9.20
2020,04,13,10,05,9.20
2020,04,13,10,06,9.30
2020,04,13,10,07,9.30
2020,04,13,10,08,9.30
2020,04,13,10,09,9.30
2020,04,13,10,10,9.30
2020,04,13,10,11,9.30
2020,04,13,10,12,9.30
2020,04,13,10,13,9.40
2020,04,13,10,14,9.40
2020,04,13,10,15,9.50
2020,04,13,10,16,9.50
2020,04,13,10,17,9.50
2020,04,13,10,18,9.60
2020,04,13,10,19,9.60
2020,04,13,10,20,9.70
2020,04,13,10,21,9.70
2020,04,13,10,22,9.70
2020,04,13,10,23,9.80
2020,04,13,10,24,9.80
2020,04,13,10,25,9.80
2020,04,13,10,26,9.90
2020,04,13,10,27,10.00
2020,04,13,10,28,10.10
2020,04,13,10,29,10.10
2020,04,13,10,30,10.10
2020,04,13,10,31,10.00
2020,04,13,10,32,10.00
2020,04,13,10,33,10.00
2020,04,13,10,34,10.00
2020,04,13,10,35,10.00
2020,04,13,10,36,10.00
2020,04,13,10,37,10.10
2020,04,13,10,38,10.10
2020,04,13,10,39,10.20
2020,04,13,10,40,10.20
2020,04,13,10,41,10.20
2020,04,13,10,42,10.30
2020,04,13,10,43,10.40
2020,04,13,10,44,10.40
2020,04,13,10,45,10.40
2020,04,13,10,46,10.40
2020,04,13,10,47,10.40
2020,04,13,10,48,10.30
2020,04,13,10,49,10.30
2020,04,13,10,50,10.30
2020,04,13,10,51,10.30
2020,04,13,10,52,10.30
2020,04,13,10,53,10.30
2020,04,13,10,54,10.30
2020,04,13,10,55,10.30
2020,04,13,10,56,10.30
2020,04,13,10,57,10.30
2020,04,13,10,58,10.20
2020,04,13,10,59,10.20
2020,04,13,11,00,10.20
2020,04,13,11,01,10.30
2020,04,13,11,02,10.30
2020,04,13,11,03,10.40
2020,04,13,11,04,10.40
2020,04,13,11,05,10.50
2020,04,13,11,06,10.60
2020,04,13,11,07,10.60
2020,04,13,11,08,10.70
2020,04,13,11,09,10.70
2020,04,13,11,10,10.70
2020,04,13,11,11,10.70
2020,04,13,11,12,10.70
2020,04,13,11,13,10.80
2020,04,13,11,14,10.80
2020,04,13,11,15,10.80
2020,04,13,11,16,10.80
2020,04,13,11,17,10.80
2020,04,13,11,18,10.70
2020,04,13,11,19,10.50
2020,04,13,11,20,10.50
2020,04,13,11,21,10.40
2020,04,13,11,22,10.30
2020,04,13,11,23,10.30
2020,04,13,11,24,10.30
2020,04,13,11,25,10.30
2020,04,13,11,26,10.30
2020,04,13,11,27,10.40
2020,04,13,11,28,10.40
2020,04,13,11,29,10.50
2020,04,13,11,30,10.60
2020,04,13,11,31,10.70
2020,04,13,11,32,10.80
2020,04,13,11,33,11.00
2020,04,13,11,34,11.10
2020,04,13,11,35,11.20
2020,04,13,11,36,11.20
2020,04,13,11,37,11.30
2020,04,13,11,38,11.30
2020,04,13,11,39,11.30
2020,04,13,11,40,11.20
2020,04,13,11,41,11.20
2020,04,13,11,42,11.20
2020,04,13,11,43,11.20
2020,04,13,11,44,11.20
2020,04,13,11,45,11.20
2020,04,13,11,46,11.30
2020,04,13,11,47,11.30
2020,04,13,11,48,11.40
2020,04,13,11,49,11.50
2020,04,13,11,50,11.60
2020,04,13,11,51,11.60
2020,04,13,11,52,11.70
2020,04,13,11,53,11.70
2020,04,13,11,54,11.70
2020,04,13,11,55,11.70
2020,04,13,11,56,11.60
2020,04,13,11,57,11.60
2020,04,13,11,58,11.60
2020,04,13,11,59,11.60
2020,04,13,12,00,11.60
2020,04,13,12,01,11.60
2020,04,13,12,02,11.70
2020,04,13,12,03,11.80
2020,04,13,12,04,11.90
2020,04,13,12,05,12.10
2020,04,13,12,06,12.10
2020,04,13,12,07,12.10
2020,04,13,12,08,12.10
2020,04,13,12,09,12.20
2020,04,13,12,10,12.30
2020,04,13,12,11,12.30
2020,04,13,12,12,12.40
2020,04,13,12,13,12.30
2020,04,13,12,14,12.20
2020,04,13,12,15,12.20
2020,04,13,12,16,12.10
2020,04,13,12,17,12.10
2020,04,13,12,18,12.10
2020,04,13,12,19,12.10
2020,04,13,12,20,12.10
2020,04,13,12,21,12.20
2020,04,13,12,22,12.20
2020,04,13,12,23,12.20
2020,04,13,12,24,12.30
2020,04,13,12,25,12.30
2020,04,13,12,26,12.30
2020,04,13,12,27,12.40
2020,04,13,12,28,12.50
2020,04,13,12,29,12.60
2020,04,13,12,30,12.70
2020,04,13,12,31,12.70
2020,04,13,12,32,12.80
2020,04,13,12,33,12.90
2020,04,13,12,34,13.00
2020,04,13,12,35,13.10
2020,04,13,12,36,13.20
2020,04,13,12,37,13.30
2020,04,13,12,38,13.40
2020,04,13,12,39,13.50
2020,04,13,12,40,13.50
2020,04,13,12,41,13.50
2020,04,13,12,42,13.50
2020,04,13,12,43,13.40
2020,04,13,12,44,13.40
2020,04,13,12,45,13.40
2020,04,13,12,46,13.30
2020,04,13,12,47,13.30
2020,04,13,12,48,13.30
2020,04,13,12,49,13.30
2020,04,13,12,50,13.30
2020,04,13,12,51,13.30
2020,04,13,12,52,13.40
2020,04,13,12,53,13.50
2020,04,13,12,54,13.50
2020,04,13,12,55,13.50
2020,04,13,12,56,13.40
2020,04,13,12,57,13.40
2020,04,13,12,58,13.40
2020,04,13,12,59,13.50
2020,04,13,13,00,13.50
2020,04,13,13,01,13.50
2020,04,13,13,02,13.50
2020,04,13,13,03,13.60
2020,04,13,13,04,13.50
2020,04,13,13,05,13.50
2020,04,13,13,06,13.50
2020,04,13,13,07,13.60
2020,04,13,13,08,13.60
2020,04,13,13,09,13.60
2020,04,13,13,10,13.50
2020,04,13,13,11,13.40
2020,04,13,13,12,13.40
2020,04,13,13,13,13.50
2020,04,13,13,14,13.50
2020,04,13,13,15,13.60
2020,04,13,13,16,13.60
2020,04,13,13,17,13.70
2020,04,13,13,18,13.70
2020,04,13,13,19,13.80
2020,04,13,13,20,13.90
2020,04,13,13,21,14.00
2020,04,13,13,22,14.00
2020,04,13,13,23,14.00
2020,04,13,13,24,13.90
2020,04,13,13,25,13.90
2020,04,13,13,26,13.90
2020,04,13,13,27,13.70
2020,04,13,13,28,13.50
2020,04,13,13,29,13.40
2020,04,13,13,30,13.30
2020,04,13,13,31,13.30
2020,04,13,13,32,13.30
2020,04,13,13,33,13.40
2020,04,13,13,34,13.50
2020,04,13,13,35,13.60
2020,04,13,13,36,13.70
2020,04,13,13,37,13.90
2020,04,13,13,38,14.00
2020,04,13,13,39,14.10
2020,04,13,13,40,14.30
2020,04,13,13,41,14.50
2020,04,13,13,42,14.70
2020,04,13,13,43,14.80
2020,04,13,13,44,14.90
2020,04,13,13,45,15.00
2020,04,13,13,46,15.10
2020,04,13,13,47,15.10
2020,04,13,13,48,15.20
2020,04,13,13,49,15.20
2020,04,13,13,50,15.20
2020,04,13,13,51,15.30
2020,04,13,13,52,15.30
2020,04,13,13,53,15.30
2020,04,13,13,54,15.20
2020,04,13,13,55,15.20
2020,04,13,13,56,15.10
2020,04,13,13,57,15.00
2020,04,13,13,58,15.00
2020,04,13,13,59,15.00
2020,04,13,14,00,15.10
2020,04,13,14,01,15.20
2020,04,13,14,02,15.20
2020,04,13,14,03,15.30
2020,04,13,14,04,15.30
2020,04,13,14,05,15.30
2020,04,13,14,06,15.20
2020,04,13,14,07,15.20
2020,04,13,14,08,15.10
2020,04,13,14,09,15.00
2020,04,13,14,10,15.00
2020,04,13,14,11,15.00
2020,04,13,14,12,15.10
2020,04,13,14,13,15.20
2020,04,13,14,14,15.20
2020,04,13,14,15,15.20
2020,04,13,14,16,15.20
2020,04,13,14,17,15.20
2020,04,13,14,18,15.30
2020,04,13,14,19,15.30
2020,04,13,14,20,15.30
2020,04,13,14,21,15.20
2020,04,13,14,22,15.10
2020,04,13,14,23,15.10
2020,04,13,14,24,15.10
2020,04,13,14,25,15.10
2020,04,13,14,26,15.10
2020,04,13,14,27,15.10
2020,04,13,14,28,15.10
2020,04,13,14,29,15.10
2020,04,13,14,30,15.10
2020,04,13,14,31,15.10
2020,04,13,14,32,15.00
2020,04,13,14,33,14.90
2020,04,13,14,34,14.80
2020,04,13,14,35,14.70
2020,04,13,14,36,14.70
2020,04,13,14,37,14.70
2020,04,13,14,38,14.70
2020,04,13,14,39,14.70
2020,04,13,14,40,14.70
2020,04,13,14,41,14.70
2020,04,13,14,42,14.70
2020,04,13,14,43,14.70
2020,04,13,14,44,14.70
2020,04,13,14,45,14.70
2020,04,13,14,46,14.60
2020,04,13,14,47,14.60
2020,04,13,14,48,14.40
2020,04,13,14,49,14.40
2020,04,13,14,50,14.30
2020,04,13,14,51,14.20
2020,04,13,14,52,14.20
2020,04,13,14,53,14.20
2020,04,13,14,54,14.30
2020,04,13,14,55,14.30
2020,04,13,14,56,14.30
2020,04,13,14,57,14.30
2020,04,13,14,58,14.30
2020,04,13,14,59,14.40
2020,04,13,15,00,14.50
2020,04,13,15,01,14.60
2020,04,13,15,02,14.70
2020,04,13,15,03,14.80
2020,04,13,15,04,14.90
2020,04,13,15,05,14.90
2020,04,13,15,06,15.00
2020,04,13,15,07,15.00
2020,04,13,15,08,15.10
2020,04,13,15,09,15.30
2020,04,13,15,10,15.30
2020,04,13,15,11,15.40
2020,04,13,15,12,15.40
2020,04,13,15,13,15.30
2020,04,13,15,14,15.30
2020,04,13,15,15,15.30
2020,04,13,15,16,15.40
2020,04,13,15,17,15.40
2020,04,13,15,18,15.50
2020,04,13,15,19,15.50
2020,04,13,15,20,15.50
2020,04,13,15,21,15.40
2020,04,13,15,22,15.40
2020,04,13,15,23,15.40
2020,04,13,15,24,15.40
2020,04,13,15,25,15.30
2020,04,13,15,26,15.20
2020,04,13,15,27,15.20
2020,04,13,15,28,15.10
2020,04,13,15,29,15.00
2020,04,13,15,30,14.90
2020,04,13,15,31,14.80
2020,04,13,15,32,14.80
2020,04,13,15,33,14.70
2020,04,13,15,34,14.70
2020,04,13,15,35,14.70
2020,04,13,15,36,14.60
2020,04,13,15,37,14.60
2020,04,13,15,38,14.50
2020,04,13,15,39,14.40
2020,04,13,15,40,14.30
2020,04,13,15,41,14.20
2020,04,13,15,42,14.20
2020,04,13,15,43,14.20
2020,04,13,15,44,14.20
2020,04,13,15,45,14.20
2020,04,13,15,46,14.20
2020,04,13,15,47,14.20
2020,04,13,15,48,14.20
2020,04,13,15,49,14.30
2020,04,13,15,50,14.30
2020,04,13,15,51,14.30
2020,04,13,15,52,14.30
2020,04,13,15,53,14.20
2020,04,13,15,54,14.20
2020,04,13,15,55,14.20
2020,04,13,15,56,14.20
2020,04,13,15,57,14.30
2020,04,13,15,58,14.40
2020,04,13,15,59,14.50
2020,04,13,16,00,14.60
2020,04,13,16,01,14.70
2020,04,13,16,02,14.70
2020,04,13,16,03,14.70
2020,04,13,16,04,14.70
2020,04,13,16,05,14.70
2020,04,13,16,06,14.70
2020,04,13,16,07,14.70
2020,04,13,16,08,14.70
2020,04,13,16,09,14.70
2020,04,13,16,10,14.70
2020,04,13,16,11,14.80
2020,04,13,16,12,14.80
2020,04,13,16,13,14.80
2020,04,13,16,14,14.80
2020,04,13,16,15,14.80
2020,04,13,16,16,14.80
2020,04,13,16,17,14.70
2020,04,13,16,18,14.70
2020,04,13,16,19,14.60
2020,04,13,16,20,14.60
2020,04,13,16,21,14.60
2020,04,13,16,22,14.60
2020,04,13,16,23,14.50
2020,04,13,16,24,14.50
2020,04,13,16,25,14.40
2020,04,13,16,26,14.40
2020,04,13,16,27,14.40
2020,04,13,16,28,14.50
2020,04,13,16,29,14.40
2020,04,13,16,30,14.40
2020,04,13,16,31,14.40
2020,04,13,16,32,14.40
2020,04,13,16,33,14.30
2020,04,13,16,34,14.30
2020,04,13,16,35,14.30
2020,04,13,16,36,14.30
2020,04,13,16,37,14.40
2020,04,13,16,38,14.40
2020,04,13,16,39,14.40
2020,04,13,16,40,14.40
2020,04,13,16,41,14.40
2020,04,13,16,42,14.40
2020,04,13,16,43,14.40
2020,04,13,16,44,14.40
2020,04,13,16,45,14.40
2020,04,13,16,46,14.50
2020,04,13,16,47,14.50
2020,04,13,16,48,14.50
2020,04,13,16,49,14.50
2020,04,13,16,50,14.50
2020,04,13,16,51,14.50
2020,04,13,16,52,14.50
2020,04,13,16,53,14.50
2020,04,13,16,54,14.50
2020,04,13,16,55,14.40
2020,04,13,16,56,14.40
2020,04,13,16,57,14.40
2020,04,13,16,58,14.30
2020,04,13,16,59,14.30
2020,04,13,17,00,14.30
2020,04,13,17,01,14.30
2020,04,13,17,02,14.30
2020,04,13,17,03,14.30
2020,04,13,17,04,14.30
2020,04,13,17,05,14.30
2020,04,13,17,06,14.20
2020,04,13,17,07,14.20
2020,04,13,17,08,14.20
2020,04,13,17,09,14.20
2020,04,13,17,10,14.20
2020,04,13,17,11,14.20
2020,04,13,17,12,14.20
2020,04,13,17,13,14.20
2020,04,13,17,14,14.20
2020,04,13,17,15,14.20
2020,04,13,17,16,14.20
2020,04,13,17,17,14.20
2020,04,13,17,18,14.30
2020,04,13,17,19,14.20
2020,04,13,17,20,14.20
2020,04,13,17,21,14.20
2020,04,13,17,22,14.20
2020,04,13,17,23,14.20
2020,04,13,17,24,14.20
2020,04,13,17,25,14.20
2020,04,13,17,26,14.20
2020,04,13,17,27,14.10
2020,04,13,17,28,14.10
2020,04,13,17,29,14.10
2020,04,13,17,30,14.00
2020,04,13,17,31,14.00
2020,04,13,17,32,13.90
2020,04,13,17,33,13.90
2020,04,13,17,34,13.90
2020,04,13,17,35,13.90
2020,04,13,17,36,13.90
2020,04,13,17,37,13.90
2020,04,13,17,38,13.80
2020,04,13,17,39,13.80
2020,04,13,17,40,13.80
2020,04,13,17,41,13.70
2020,04,13,17,42,13.60
2020,04,13,17,43,13.50
2020,04,13,17,44,13.40
2020,04,13,17,45,13.30
2020,04,13,17,46,13.30
2020,04,13,17,47,13.30
2020,04,13,17,48,13.20
2020,04,13,17,49,13.00
2020,04,13,17,50,12.90
2020,04,13,17,51,12.80
2020,04,13,17,52,12.70
2020,04,13,17,53,12.70
2020,04,13,17,54,12.70
2020,04,13,17,55,12.60
2020,04,13,17,56,12.60
2020,04,13,17,57,12.60
2020,04,13,17,58,12.60
2020,04,13,17,59,12.60
2020,04,13,18,00,12.60
2020,04,13,18,01,12.60
2020,04,13,18,02,12.50
2020,04,13,18,03,12.50
2020,04,13,18,04,12.40
2020,04,13,18,05,12.40
2020,04,13,18,06,12.40
2020,04,13,18,07,12.50
2020,04,13,18,08,12.50
2020,04,13,18,09,12.50
2020,04,13,18,10,12.60
2020,04,13,18,11,12.60
2020,04,13,18,12,12.70
2020,04,13,18,13,12.80
2020,04,13,18,14,12.80
2020,04,13,18,15,12.90
2020,04,13,18,16,12.90
2020,04,13,18,17,12.90
2020,04,13,18,18,12.90
2020,04,13,18,19,13.00
2020,04,13,18,20,13.10
2020,04,13,18,21,13.10
2020,04,13,18,22,13.10
2020,04,13,18,23,13.10
2020,04,13,18,24,13.20
2020,04,13,18,25,13.20
2020,04,13,18,26,13.20
2020,04,13,18,27,13.20
2020,04,13,18,28,13.20
2020,04,13,18,29,13.20
2020,04,13,18,30,13.20
2020,04,13,18,31,13.20
2020,04,13,18,32,13.30
2020,04,13,18,33,13.30
2020,04,13,18,34,13.30
2020,04,13,18,35,13.30
2020,04,13,18,36,13.30
2020,04,13,18,37,13.30
2020,04,13,18,38,13.20
2020,04,13,18,39,13.10
2020,04,13,18,40,13.00
2020,04,13,18,41,13.00
2020,04,13,18,42,12.90
2020,04,13,18,43,12.90
2020,04,13,18,44,12.80
2020,04,13,18,45,12.80
2020,04,13,18,46,12.80
2020,04,13,18,47,12.80
2020,04,13,18,48,12.70
2020,04,13,18,49,12.60
2020,04,13,18,50,12.60
2020,04,13,18,51,12.50
2020,04,13,18,52,12.40
2020,04,13,18,53,12.30
2020,04,13,18,54,12.20
2020,04,13,18,55,12.20
2020,04,13,18,56,12.10
2020,04,13,18,57,12.00
2020,04,13,18,58,11.90
2020,04,13,18,59,11.90
2020,04,13,19,00,11.80
2020,04,13,19,01,11.80
2020,04,13,19,02,11.70
2020,04,13,19,03,11.70
2020,04,13,19,04,11.70
2020,04,13,19,05,11.70
2020,04,13,19,06,11.70
2020,04,13,19,07,11.60
2020,04,13,19,08,11.60
2020,04,13,19,09,11.60
2020,04,13,19,10,11.50
2020,04,13,19,11,11.40
2020,04,13,19,12,11.40
2020,04,13,19,13,11.30
2020,04,13,19,14,11.30
2020,04,13,19,15,11.30
2020,04,13,19,16,11.20
2020,04,13,19,17,11.20
2020,04,13,19,18,11.20
2020,04,13,19,19,11.20
2020,04,13,19,20,11.10
2020,04,13,19,21,11.10
2020,04,13,19,22,11.00
2020,04,13,19,23,11.00
2020,04,13,19,24,10.90
2020,04,13,19,25,10.90
2020,04,13,19,26,10.90
2020,04,13,19,27,10.80
2020,04,13,19,28,10.80
2020,04,13,19,29,10.80
2020,04,13,19,30,10.80
2020,04,13,19,31,10.70
2020,04,13,19,32,10.70
2020,04,13,19,33,10.70
2020,04,13,19,34,10.70
2020,04,13,19,35,10.60
2020,04,13,19,36,10.70
2020,04,13,19,37,10.60
2020,04,13,19,38,10.60
2020,04,13,19,39,10.60
2020,04,13,19,40,10.60
2020,04,13,19,41,10.60
2020,04,13,19,42,10.60
2020,04,13,19,43,10.60
2020,04,13,19,44,10.50
2020,04,13,19,45,10.50
2020,04,13,19,46,10.40
2020,04,13,19,47,10.40
2020,04,13,19,48,10.40
2020,04,13,19,49,10.40
2020,04,13,19,50,10.40
2020,04,13,19,51,10.40
2020,04,13,19,52,10.40
2020,04,13,19,53,10.40
2020,04,13,19,54,10.40
2020,04,13,19,55,10.40
2020,04,13,19,56,10.40
